Weather in Politotdelskiy

Russia / Belgorod Oblast     50°28′25″N   36°24′34″E
temp.,
°C
wind,
m/s
gust,
m/s
humid.,
%
clouds,
%
prec.,
mm/h
press.,
hPa
HPBL,
m
8 may, sat
sat800:00+10sse61468100 0.0 1013330
03:00+11sse71763100 0.0 1012623
06:00+10sse51283100 0.8 1010397
09:00+11sse81783100 1.3 1008670
12:00+11s91791100 1.6 1007854
15:00+12ssw81494100 9.0 1006775
18:00+12wsw71087100 0.4 1007839
21:00+6w81387100 0.6 1010802
9 may, sun
sun900:00+5wnw81392100 0.0 1012755
03:00+5wnw61184100 0.0 1014997
06:00+5nw5985100 0.0 1016758
09:00+7nw71166100 0.0 10171108
12:00+11nw8115063 0.0 10182003
15:00+11nnw81051100 0.1 10202132
18:00+10nnw610605 0.1 10211511
21:00+5nnw38760 0.1 1025156
10 may, mon
mon1000:00+4nnw36835 0.0 1026100
03:00+3nw39870 0.0 1027168
06:00+3nnw410825 0.0 1028234
09:00+10n610590 0.0 1028860
12:00+13n810455 0.0 10261825
15:00+14n911455 0.0 10252037
18:00+12n81357100 0.0 10241613
21:00+10n81560100 0.0 1024839
11 may, tue
tue1100:00+10nne81560100 0.0 1023838
03:00+10nne81561100 0.0 1022695
06:00+9nne81772100 0.0 1021613
09:00+8ne81780100 0.3 1021641
12:00+9ne7148898 0.1 1021801
15:00+12e71273100 0.3 10211606
18:00+13ene613686 0.1 10221660
21:00+8ene51380100 0.1 1022467
12 may, wed
wed1200:00+7e413847 0.0 1022434
03:00+6ene5118866 0.0 1021335
06:00+7ene6148485 0.0 1020691
09:00+8ese81588100 0.6 10201318
12:00+9ese61287100 0.3 1020934
15:00+9ese61387100 0.9 10191384
18:00+9ese41096100 3.1 1019537
21:00+9ene3699100 6.2 1017237